Theta_e
309 309 309 309 310 310 310 310 310 311 311 312 312 312 312 312 312 308 300 297 291 287 292 298 299 295 292 290 287 291 292 293 290 288 287 287 286 289 287 289 289 286 284 283 283 281 280 296 295 289 292 292 293 294
309 309 309 309 309 309 309 310 310 310 310 311 311 312 312 312 312 310 298 299 299 291 288 295 300 302 299 298 292 290 292 291 294 290 289 288 287 287 286 284 291 286 289 285 286 285 292 297 296 298 295 294 296 295
309 309 309 309 309 309 309 309 310 310 310 310 311 312 312 313 312 309 303 299 295 292 294 295 297 300 300 298 299 293 292 296 295 296 292 290 288 289 285 286 289 292 293 290 289 293 293 297 300 298 298 297 299 299
308 309 309 309 309 309 309 309 309 309 310 310 310 312 312 312 311 310 299 296 294 293 292 295 304 303 308 302 299 298 299 301 299 296 292 291 290 293 289 290 289 292 294 291 290 294 297 298 299 301 302 301 301 301
308 308 308 309 309 309 309 309 308 308 308 309 310 312 311 311 310 306 306 300 298 297 294 295 300 300 306 305 302 302 302 300 298 296 295 293 296 295 294 293 288 292 290 289 289 295 297 297 301 303 302 302 302 301
308 308 308 309 309 308 308 308 307 307 308 309 310 311 310 310 309 299 299 302 303 299 298 292 298 299 303 305 305 303 304 301 299 297 295 295 299 296 292 287 289 292 295 296 293 297 297 299 303 305 303 305 305 302
307 308 308 309 309 308 307 306 306 306 307 309 309 309 310 309 300 299 302 304 304 303 296 291 293 299 303 302 301 301 301 300 298 295 290 294 291 291 285 283 289 294 296 298 298 297 293 298 298 301 302 305 306 304
307 307 307 308 307 307 306 306 306 307 307 308 308 309 309 307 305 302 303 307 304 299 297 291 294 296 302 297 296 299 296 295 298 295 292 290 291 290 284 289 293 295 296 297 298 299 297 298 299 299 301 302 301 300
305 306 306 306 306 306 306 306 306 306 307 308 308 309 305 303 299 300 311 310 302 297 292 294 290 289 300 297 296 297 296 292 297 289 289 290 287 282 288 291 293 295 294 294 298 298 299 297 296 296 298 299 300 300
305 305 305 305 306 306 305 305 305 307 307 307 303 299 298 301 309 308 304 302 302 301 297 293 295 293 297 293 292 294 297 295 287 289 293 286 284 292 293 295 295 294 295 296 293 292 294 295 296 296 296 298 299 302
304 304 305 305 305 305 305 305 306 307 305 298 295 294 300 307 303 302 299 299 299 294 296 296 296 293 298 292 291 296 293 294 285 287 287 284 281 291 294 293 294 295 296 296 296 296 296 296 295 296 297 299 300 303
304 304 304 304 304 304 305 306 306 302 297 298 299 303 303 299 301 297 294 296 294 292 295 294 294 295 295 296 293 293 291 289 282 288 283 273 284 289 291 292 293 296 296 296 296 296 296 296 297 298 298 299 301 303
303 303 304 304 304 305 306 307 306 304 303 304 301 299 299 297 290 293 290 291 290 294 295 294 292 294 295 294 292 289 285 285 290 284 281 281 287 291 290 292 293 295 296 295 295 296 298 297 299 299 299 300 301 303
303 303 303 303 303 306 306 304 303 303 299 296 296 286 291 290 294 294 293 293 296 296 294 292 292 291 290 289 286 284 286 285 277 273 275 283 290 289 291 293 292 293 294 293 293 295 296 297 298 300 301 302 301 301
301 301 302 302 306 304 303 303 303 302 298 295 297 285 292 295 296 297 297 297 297 296 294 292 292 290 287 286 284 282 280 277 275 274 282 289 287 289 291 291 292 293 293 292 294 296 297 298 299 301 303 303 302 303
301 300 301 304 303 302 302 303 303 302 300 298 296 294 294 294 294 296 296 295 297 295 294 292 288 287 285 284 283 280 277 273 278 285 290 286 290 291 290 292 293 294 293 293 295 297 299 301 301 303 304 303 303 304
300 294 302 301 301 302 303 302 302 302 300 300 296 297 293 294 294 294 296 297 297 295 291 289 286 285 286 284 283 282 278 282 285 286 285 289 291 290 291 293 293 293 293 293 294 297 296 297 297 298 298 301 305 304
294 296 300 300 301 301 303 303 301 301 299 299 295 295 295 295 295 297 298 298 297 294 292 289 289 284 283 281 278 283 285 287 286 285 288 291 291 291 293 292 293 293 292 293 294 295 294 293 292 293 294 295 295 296
298 298 300 301 301 299 298 299 301 296 297 296 296 296 295 295 298 299 299 298 297 296 293 290 286 283 284 285 286 286 286 286 285 286 291 292 291 292 293 293 293 292 292 293 292 292 293 292 291 291 292 291 290 291
301 300 301 303 304 300 298 297 301 296 295 296 297 296 295 296 298 298 297 296 295 293 290 288 286 287 288 289 290 289 287 286 286 286 290 289 292 292 292 292 292 292 292 292 292 291 292 291 291 291 290 290 288 288
298 299 302 305 303 301 298 296 295 297 297 295 297 296 295 298 297 296 295 295 293 291 289 290 290 291 292 290 290 288 287 288 287 289 290 288 290 292 292 293 292 291 290 290 289 290 290 290 291 291 290 290 291 290
297 302 300 303 302 303 299 299 296 297 295 296 296 296 294 299 296 296 297 294 293 293 293 292 292 291 290 289 289 289 290 289 294 291 289 288 287 290 290 291 291 288 288 289 289 289 289 290 291 291 290 289 289 289
301 300 300 301 298 295 293 298 294 295 293 296 299 295 297 296 297 299 294 293 294 295 294 293 294 292 290 291 291 291 291 290 288 286 287 289 291 291 291 292 292 289 287 287 288 289 289 287 288 289 289 288 289 288
302 299 298 297 298 292 298 294 297 296 297 297 295 296 297 296 298 295 292 293 294 295 293 292 292 290 289 290 288 289 289 288 286 286 286 287 289 289 291 291 291 292 291 289 288 288 288 288 288 288 288 288 288 287
294 290 294 288 296 294 294 294 294 294 294 297 296 295 296 298 293 291 292 294 294 294 291 291 291 291 289 289 288 288 289 288 286 285 286 286 286 288 286 287 287 287 288 287 287 287 287 288 288 288 287 287 286 285
287 294 289 292 293 293 295 294 296 296 295 293 295 296 297 295 292 292 294 295 295 295 293 292 291 291 289 290 289 288 288 288 287 286 286 286 286 285 284 284 284 286 288 287 287 286 286 287 287 287 287 287 285 287
286 287 291 294 295 297 296 298 298 296 294 295 295 296 294 289 290 295 297 298 297 298 298 297 295 293 292 290 290 291 290 288 287 287 289 288 288 287 287 285 286 288 289 289 289 288 287 287 287 286 286 286 286 285
291 290 287 290 292 295 292 292 293 294 296 298 297 293 292 293 292 299 300 301 302 298 295 297 297 295 293 293 293 292 290 289 290 290 290 290 290 290 290 290 290 284 290 289 290 290 289 289 286 285 285 284 284 284
290 291 290 288 289 289 289 291 293 294 295 294 291 292 295 299 304 304 305 305 299 295 295 293 292 294 293 293 294 294 291 291 289 287 287 286 287 289 291 291 290 290 289 289 283 284 288 287 286 285 285 284 284 284
289 292 288 289 288 286 289 291 291 294 295 295 296 296 295 296 300 304 302 298 298 297 298 298 296 295 293 292 292 292 293 292 292 290 288 287 288 291 291 292 291 290 289 288 286 286 283 285 284 285 284 283 283 283
295 292 292 292 290 291 295 298 298 295 294 293 295 293 294 294 297 300 304 303 300 298 296 296 297 297 295 294 293 292 291 293 293 293 293 290 290 290 291 293 293 292 290 288 287 286 285 284 284 283 283 283 282 282
294 291 290 288 288 293 295 294 295 296 295 292 292 293 293 294 293 298 302 302 300 298 294 297 298 296 299 299 298 297 290 295 294 294 294 291 288 291 293 292 292 291 291 288 286 286 285 284 283 283 283 283 283 282
293 294 294 293 291 291 295 297 296 294 294 293 294 295 295 295 294 299 303 305 304 303 303 302 299 299 300 300 298 295 290 292 291 288 287 286 285 287 289 289 290 290 289 287 287 286 285 285 284 283 282 282 281 281
Wind_Speed
18 19 20 20 21 21 22 23 24 24 24 25 25 23 21 18 14 4 4 4 3 2 7 4 3 2 1 2 3 4 5 3 3 2 4 4 4 5 2 4 6 8 7 5 2 3 8 6 6 9 9 3 3 5
18 19 19 20 21 21 22 23 24 25 24 24 25 24 22 19 13 4 3 1 1 2 6 3 8 8 9 8 6 3 5 3 5 5 2 3 3 1 4 4 1 2 9 7 10 9 4 11 7 13 5 5 5 5
19 20 20 20 21 22 22 23 25 25 25 25 26 24 23 18 13 4 3 2 2 1 5 4 4 4 2 7 7 5 3 5 3 3 5 2 4 4 5 7 4 3 2 4 3 5 7 9 12 5 7 8 7 7
18 19 20 20 21 23 23 23 25 27 27 28 27 24 23 18 12 5 3 2 2 2 1 7 3 6 8 2 5 3 2 3 4 2 2 3 3 4 4 3 3 3 5 5 5 4 9 2 4 7 11 9 6 7
18 18 19 20 21 23 25 25 27 29 29 30 29 27 23 19 11 3 4 3 2 2 2 5 8 2 5 7 3 4 7 4 2 2 2 0 1 4 2 4 5 7 6 4 4 14 8 13 17 20 15 12 10 8
19 19 19 20 21 24 27 27 27 30 31 32 30 30 26 16 5 3 2 2 4 3 2 4 4 4 4 5 6 5 4 3 2 2 4 4 7 5 3 4 4 9 10 6 5 13 15 17 18 18 18 21 13 12
19 19 20 21 21 21 25 28 29 30 32 33 30 30 24 4 4 2 3 3 6 2 2 5 6 4 4 3 3 3 4 3 4 4 6 5 7 5 2 3 10 15 15 13 6 9 10 14 14 16 17 16 11 10
19 19 20 20 22 23 24 25 27 29 32 33 30 26 12 5 2 2 1 5 3 2 2 1 5 6 5 4 4 4 4 4 8 4 2 3 2 1 2 7 13 12 13 13 11 6 8 11 15 12 13 14 5 6
20 20 20 21 21 21 23 24 27 29 32 33 28 9 3 2 2 3 14 12 2 3 2 2 1 5 4 2 2 4 2 6 3 3 2 1 2 1 6 9 13 14 12 16 15 13 11 13 14 13 13 16 12 10
20 21 22 22 21 22 22 24 26 28 31 26 6 5 2 1 13 10 2 2 3 3 3 2 1 4 2 3 2 2 3 3 3 2 1 1 3 4 5 7 10 14 14 15 17 15 16 15 13 15 14 13 13 11
21 22 23 23 24 22 21 23 23 26 10 6 6 4 6 13 2 1 1 1 0 1 1 3 4 2 2 1 1 2 2 3 3 1 2 1 3 2 7 11 11 11 13 14 14 14 14 14 14 14 15 14 14 13
23 23 23 22 23 24 22 19 17 7 1 5 7 6 4 4 2 1 1 1 1 2 2 1 2 4 2 1 3 4 3 3 2 2 1 3 3 5 10 13 14 14 15 14 14 16 16 15 13 12 12 11 12 14
24 25 25 24 23 22 16 14 16 16 12 2 2 3 1 3 5 2 1 3 2 2 2 3 4 1 3 4 4 4 4 3 2 2 2 4 4 7 10 12 14 15 16 20 15 16 15 16 15 12 11 10 10 10
24 26 27 25 25 15 15 19 20 11 3 1 2 6 2 3 2 3 4 3 4 1 3 1 2 3 2 5 2 4 1 2 3 4 4 3 8 10 11 13 15 18 17 17 17 16 16 15 14 13 10 9 8 7
26 29 30 18 7 17 23 25 20 2 3 2 2 3 4 3 2 2 1 0 2 2 3 2 3 3 4 5 3 3 5 3 3 4 4 4 7 9 13 15 15 16 15 15 16 14 15 14 12 9 6 5 4 6
26 25 2 8 21 26 29 17 2 3 2 2 3 3 3 2 3 2 1 1 1 2 2 4 3 4 3 2 3 2 3 3 5 3 2 4 8 10 12 13 14 14 16 15 15 14 13 13 13 9 5 3 3 3
22 5 12 24 28 29 21 2 2 3 3 3 4 3 2 3 4 2 2 1 1 3 2 3 4 1 1 3 1 3 5 4 3 2 2 3 7 10 10 12 14 15 15 15 16 14 15 14 15 17 16 13 9 12
5 10 26 29 22 11 2 1 2 2 4 4 2 3 2 3 1 1 1 1 3 3 2 2 4 3 2 2 3 4 3 1 1 1 2 4 7 10 8 11 12 12 13 13 14 13 15 16 15 11 14 14 15 14
15 18 27 25 12 4 3 3 1 3 4 2 3 2 1 2 1 0 3 3 3 3 5 3 4 2 2 3 4 2 2 2 1 1 2 6 9 8 9 10 10 12 12 12 13 9 9 13 11 10 10 10 10 9
25 23 18 16 6 2 3 4 0 2 4 3 2 3 1 1 1 3 3 2 3 3 3 2 3 4 4 3 3 2 3 3 3 2 2 4 4 6 8 8 8 9 9 10 9 12 9 10 10 10 9 11 11 11
11 5 10 3 2 3 2 3 3 3 4 3 2 2 1 1 2 2 2 1 3 2 2 3 3 1 1 2 3 4 5 4 2 2 1 3 4 4 6 6 7 7 7 8 9 10 13 9 8 9 10 10 9 10
4 9 3 3 3 4 3 3 3 4 2 3 4 1 1 2 2 3 3 2 2 3 4 4 3 4 4 4 3 3 6 5 4 4 6 4 3 4 5 5 6 7 7 8 7 8 8 8 8 9 10 10 12 10
7 3 3 3 3 1 6 2 2 2 2 3 2 1 1 0 1 1 2 1 2 2 3 3 3 4 5 4 6 5 4 5 4 4 3 2 3 2 3 4 5 6 7 7 6 6 7 8 9 9 9 10 9 9
3 3 3 3 2 4 2 3 2 3 3 2 2 1 2 2 1 2 1 2 2 2 2 4 6 6 4 4 3 3 3 3 4 3 0 2 4 4 3 5 5 4 3 3 4 6 6 6 6 7 7 10 10 8
5 5 1 4 3 3 3 3 3 2 3 2 2 2 2 2 2 0 1 3 2 3 3 4 3 3 4 3 2 2 3 4 4 4 1 1 1 3 4 4 4 3 2 5 4 5 5 5 5 6 7 7 8 8
3 2 3 3 2 1 3 3 5 5 3 3 2 1 1 2 1 2 3 3 4 5 6 8 7 4 3 3 5 4 4 4 4 4 3 3 3 3 3 3 3 3 3 2 4 4 4 3 4 5 5 5 5 5
3 4 3 3 2 4 3 2 4 3 2 2 3 5 2 2 3 2 2 2 3 4 5 7 8 7 6 5 3 3 5 5 4 4 4 4 4 3 3 3 3 1 1 2 3 3 3 3 3 3 3 3 4 4
3 3 3 3 3 2 3 3 3 4 2 2 2 2 3 0 1 3 4 2 3 4 4 5 4 5 6 7 6 7 5 4 5 5 4 2 2 3 3 3 2 2 2 2 2 1 1 3 4 4 4 5 4 3
4 2 3 4 3 3 4 4 4 3 2 1 0 2 3 3 1 2 2 2 4 4 5 5 3 5 6 5 5 6 6 8 9 7 7 4 2 3 4 3 3 1 1 1 5 2 4 4 5 5 5 4 3 4
4 3 2 3 3 5 5 4 3 3 2 3 2 3 4 4 5 2 3 3 4 5 5 7 6 4 7 9 8 5 4 6 6 6 7 6 6 4 5 5 5 4 3 3 4 4 5 5 4 3 4 4 3 3
3 2 4 4 5 5 5 5 6 4 4 5 6 6 8 4 4 4 5 5 5 7 8 8 8 9 10 9 10 10 8 7 7 8 5 2 3 4 5 6 5 5 4 5 5 4 4 3 3 5 5 5 4 4
3 4 3 4 5 5 4 4 5 4 3 3 4 4 2 3 4 5 4 5 7 8 8 10 10 10 10 8 7 6 6 8 10 9 9 4 4 4 4 4 5 5 6 7 6 5 5 5 4 4 4 4 4 5
4 6 5 4 4 4 4 2 3 4 4 4 5 5 6 7 7 5 0 2 4 7 9 9 5 7 11 11 10 7 5 5 10 9 9 7 6 6 4 4 5 6 9 8 6 5 6 6 5 6 6 6 6 6
Wind_Direction
327 327 328 329 329 328 327 328 328 330 331 330 330 329 333 336 335 348 276 203 139 202 276 219 265 257 28 112 125 272 15 323 56 114 154 216 196 228 201 217 185 175 157 204 137 210 282 152 91 170 214 202 208 210
322 323 324 324 324 324 324 325 325 326 328 327 326 326 329 333 328 335 278 317 100 176 249 284 250 238 194 204 156 220 205 191 210 105 207 117 219 195 183 238 71 229 187 195 172 212 228 199 202 218 172 182 214 205
320 321 321 321 321 321 322 323 323 323 324 324 324 324 325 327 323 283 256 246 78 1 305 354 303 305 262 204 176 156 261 212 208 185 156 169 206 133 191 232 220 250 125 201 89 251 233 221 237 259 207 223 228 222
315 317 318 318 319 319 320 323 324 323 324 324 322 322 324 325 315 262 197 183 116 138 97 280 349 325 307 245 176 222 141 69 96 77 114 153 191 165 220 225 123 343 336 335 268 329 332 261 280 291 293 258 237 216
312 314 315 316 318 318 318 324 328 325 324 323 320 322 325 323 305 217 215 210 214 127 239 276 311 279 357 28 356 166 149 135 131 102 107 193 50 7 346 85 43 354 1 333 302 324 311 299 302 298 294 263 231 199
311 312 313 315 320 323 321 326 328 325 323 321 320 321 324 316 158 159 44 207 203 183 93 325 289 304 327 351 33 31 20 37 66 95 30 29 39 9 340 52 345 326 300 311 312 319 307 287 286 289 278 266 254 204
311 314 316 317 319 323 326 328 328 325 323 317 321 321 328 65 117 135 166 166 157 141 98 326 334 297 331 351 13 27 17 52 66 62 25 24 9 35 59 6 315 326 327 302 311 342 331 339 316 322 328 289 252 215
316 317 317 318 323 325 322 322 325 326 322 315 320 317 322 170 288 72 137 123 136 117 82 41 280 345 14 331 347 354 26 35 26 85 21 12 10 71 59 294 301 304 318 330 291 298 284 301 312 318 338 339 283 220
323 321 319 317 319 321 321 324 325 326 319 317 315 321 109 18 36 255 315 323 138 132 143 92 200 278 359 7 13 1 70 73 67 52 48 17 331 50 234 282 312 320 320 310 315 316 298 307 313 337 339 340 337 328
321 319 318 319 321 321 325 328 328 328 319 316 360 25 339 18 299 302 32 36 42 349 50 194 148 268 62 15 333 347 15 76 87 29 326 88 241 243 269 296 314 320 319 324 323 322 321 302 328 329 329 326 317 316
320 318 318 322 324 325 328 325 326 332 348 8 2 328 303 310 320 48 163 131 218 313 186 241 180 258 340 71 266 63 84 64 95 136 239 225 269 350 329 317 322 312 311 310 306 306 310 312 311 311 314 320 317 312
319 319 317 318 321 324 324 319 326 346 286 278 277 299 285 312 343 147 313 325 66 245 247 206 270 197 297 116 91 358 77 61 66 277 71 288 254 310 325 326 317 315 311 313 311 304 300 302 300 298 295 299 311 311
318 317 314 317 317 317 315 324 333 320 310 262 230 263 349 269 42 120 53 320 324 300 321 352 333 40 1 36 62 65 65 55 134 31 268 238 269 335 330 313 319 321 323 318 314 312 302 299 292 287 289 284 294 309
317 315 313 316 314 303 328 331 329 329 288 294 342 322 173 304 241 197 185 198 242 189 0 72 58 63 347 48 3 74 318 76 38 11 272 269 346 326 326 329 328 329 330 326 319 309 302 298 296 290 278 266 271 291
322 317 312 307 303 332 329 323 317 241 194 226 171 252 239 266 262 269 224 324 7 104 73 57 50 75 23 73 37 71 25 358 180 235 247 339 314 323 339 328 330 330 332 326 318 316 312 308 291 291 278 265 271 306
326 318 291 334 337 329 323 315 277 169 208 225 233 277 263 1 327 352 29 327 2 81 67 49 72 59 42 88 61 85 103 234 255 241 336 310 336 341 334 328 335 336 340 331 332 335 339 3 1 10 3 345 272 290
324 239 313 329 324 320 311 268 243 220 230 224 253 217 216 250 227 241 176 231 97 75 88 88 61 84 111 70 90 162 191 224 237 312 295 290 341 344 329 341 341 344 349 351 355 9 10 14 15 26 19 14 37 52
263 294 310 313 321 308 265 257 266 253 249 243 243 263 207 223 175 239 214 122 89 113 100 127 124 80 137 146 277 245 243 259 195 219 274 356 353 346 352 348 344 353 355 355 4 13 21 23 25 19 20 21 38 39
295 303 301 302 297 304 307 293 207 278 256 265 277 270 242 264 248 42 91 67 83 102 105 58 87 148 222 215 220 244 221 177 149 314 320 18 359 0 350 352 358 1 4 6 14 12 22 31 29 22 25 29 41 34
298 301 289 287 257 241 271 272 38 267 277 281 302 303 244 237 130 89 89 64 75 73 64 106 183 208 187 223 182 147 127 132 112 22 32 24 356 350 355 357 9 3 8 12 22 24 32 36 32 29 31 38 40 38
315 292 325 310 207 228 269 297 291 238 300 310 293 337 325 57 78 123 138 125 67 137 161 201 198 205 132 102 109 115 116 114 130 111 70 22 351 357 357 6 13 21 23 23 27 26 30 34 31 41 44 42 49 56
266 307 292 287 262 199 253 218 232 286 298 261 313 158 177 177 177 204 134 81 194 216 175 164 179 141 129 135 138 128 138 127 118 82 57 63 10 6 6 2 13 21 30 28 28 37 39 34 43 46 50 57 57 58
293 233 242 258 290 317 265 101 281 250 263 268 307 237 210 137 215 55 71 203 247 206 148 118 107 105 118 106 103 103 121 116 100 108 113 100 51 28 29 27 25 35 40 34 24 37 47 32 40 61 68 70 68 69
229 270 287 295 244 267 288 287 240 271 267 262 242 300 107 156 155 66 224 247 247 121 106 118 123 99 67 88 126 157 139 111 111 100 36 94 96 67 39 45 28 22 46 57 40 53 52 49 48 60 66 74 64 56
288 287 254 290 261 299 292 279 261 281 299 345 350 306 192 128 110 129 253 268 178 158 133 133 121 115 134 140 151 151 137 143 143 145 188 90 24 36 45 42 40 23 25 74 41 53 48 47 48 52 52 63 70 63
268 258 149 293 290 205 302 303 9 339 309 309 295 337 49 102 141 237 239 210 193 172 172 176 164 145 162 168 156 168 187 154 128 123 171 169 150 133 117 87 58 24 27 95 94 71 54 42 49 58 57 48 45 69
277 292 274 238 274 291 291 306 263 238 249 318 342 349 290 226 202 262 300 239 198 209 176 167 168 171 162 160 141 141 139 153 154 165 144 153 162 167 149 144 128 221 335 74 94 95 92 50 47 71 77 56 41 63
270 274 253 309 325 307 290 279 280 290 270 235 170 255 310 41 205 249 213 238 214 132 134 150 156 146 144 153 149 140 127 126 104 96 94 97 167 186 194 205 224 254 285 318 330 345 194 116 114 102 94 86 74 46
254 267 334 279 255 264 236 225 235 254 229 67 342 258 249 261 239 243 260 192 130 130 129 123 86 97 86 94 122 144 145 153 148 161 178 189 201 248 199 191 179 162 279 45 48 39 132 126 125 112 102 99 91 77
254 167 239 260 243 242 242 203 257 268 244 226 243 313 307 283 266 211 134 149 164 186 160 130 125 159 162 161 160 171 187 187 184 166 181 197 211 209 182 184 173 169 165 122 102 89 72 97 85 74 85 80 78 77
261 193 240 229 254 242 233 256 260 254 237 232 223 221 247 259 288 246 210 191 169 142 142 156 166 183 170 180 175 175 199 209 205 207 209 230 201 186 185 186 162 155 163 151 149 148 133 106 111 115 116 116 115 103
239 219 228 245 264 275 281 238 239 222 239 213 245 203 194 166 237 271 215 132 151 172 186 175 185 197 187 175 179 189 192 172 184 196 198 201 214 197 167 149 148 155 158 157 152 149 151 143 141 146 144 140 132 120
241 249 240 254 260 268 265 267 270 267 228 232 241 200 192 173 209 251 267 169 186 189 190 195 166 146 168 170 176 165 167 165 158 162 173 172 184 160 146 145 144 146 149 152 154 157 162 162 154 151 141 134 128 126